RH
71 70 70 71 76 78 77 77 81 79 79 78 78 78 78 82 82 63 52 46 63 67 68 33 33 41 43 51 42 37 51 52 39 30 24 17 18 14 15 26 28 26 47 52 64
69 69 70 70 76 78 77 79 81 79 78 78 78 79 81 84 78 68 55 59 67 68 37 28 25 28 48 51 48 45 50 45 28 23 20 17 18 15 14 24 26 60 66 61 63
72 72 72 72 72 74 78 82 80 78 78 78 78 78 82 80 55 39 48 67 69 73 50 40 26 21 47 44 42 39 42 29 22 19 19 18 17 16 15 19 23 56 67 64 63
74 74 72 72 72 73 79 82 78 77 78 78 78 78 78 81 9 25 55 64 62 68 64 53 48 27 28 48 39 43 31 26 23 20 19 18 16 16 15 16 20 50 56 56 57
76 74 73 72 71 72 76 81 79 78 78 79 79 78 72 79 67 37 50 38 53 49 46 39 37 29 32 32 36 40 34 28 22 19 18 16 17 16 15 14 28 50 52 55 56
76 74 74 73 72 71 74 78 81 81 78 78 78 76 79 82 41 33 25 28 26 41 28 36 29 22 33 35 36 29 30 27 22 19 18 17 15 18 15 15 34 49 52 56 57
72 75 75 73 70 69 73 80 81 82 78 77 77 73 75 72 43 42 40 36 26 26 29 23 22 21 25 36 33 29 31 25 22 20 19 17 17 18 13 14 15 37 38 49 52
72 73 74 74 74 76 77 79 79 78 78 78 79 76 86 46 51 50 45 33 24 19 23 26 26 22 24 31 31 36 36 38 23 18 16 18 23 15 14 14 15 29 41 44 48
72 72 75 76 76 78 79 79 77 78 79 81 92 88 81 50 52 42 41 32 20 28 32 21 28 27 23 41 47 46 52 39 27 18 18 20 23 16 15 17 15 17 40 46 49
70 68 72 75 75 77 78 77 77 78 68 67 64 88 70 45 31 22 25 24 28 43 43 42 38 31 34 47 62 55 46 36 30 24 23 26 24 18 14 17 18 19 31 45 49
68 66 69 74 75 76 75 89 62 62 57 58 66 68 55 40 30 25 23 34 52 57 68 54 53 55 33 33 37 35 37 42 33 29 30 28 26 27 20 18 22 30 37 46 48
70 69 70 73 77 74 87 78 61 59 78 50 52 51 46 41 48 36 26 40 61 73 78 76 70 46 33 27 28 36 39 43 33 26 28 27 30 21 19 18 20 28 34 44 52
72 71 71 78 76 75 73 64 50 64 83 61 44 44 45 42 48 42 29 49 60 78 82 80 65 49 41 40 35 31 32 40 38 30 24 30 31 22 19 18 19 25 26 35 48
76 76 78 80 71 73 74 54 52 71 96 60 49 38 35 34 46 30 27 43 56 65 80 85 66 66 64 55 43 59 23 23 28 32 55 31 51 28 23 22 20 19 28 34 46
79 76 78 72 82 86 62 53 52 80 71 34 33 26 31 37 32 30 26 30 40 66 71 70 76 76 73 57 43 46 44 50 47 52 53 37 42 29 26 25 22 21 21 30 43
74 74 75 74 79 72 60 58 79 92 74 38 32 35 43 36 37 29 30 31 30 43 67 58 65 64 61 51 48 53 53 52 44 49 71 44 43 45 33 23 22 20 20 28 42
73 74 76 71 85 64 70 88 91 97 31 32 35 35 40 43 40 38 37 38 44 44 48 41 55 59 58 68 54 57 72 70 69 72 75 40 44 39 29 25 23 23 20 26 42
75 79 84 72 78 77 80 95 98 49 46 29 32 27 29 25 32 42 45 44 39 35 50 50 61 44 57 64 66 61 76 85 91 93 67 34 47 36 24 20 20 20 23 30 44
78 96 96 88 81 84 91 100 67 48 37 45 41 33 29 23 27 41 50 52 41 34 46 56 55 41 45 43 52 75 93 63 84 69 91 61 45 32 32 24 21 20 32 41 48
97 97 94 64 81 81 95 78 63 42 40 42 54 40 45 40 39 35 44 59 67 58 39 47 61 38 37 37 41 50 60 97 97 96 94 58 51 55 41 39 30 34 38 45 50
95 98 75 66 79 97 94 79 55 38 37 47 58 53 44 46 41 40 57 65 53 62 51 68 60 51 43 45 58 60 95 91 82 82 96 81 73 64 52 38 38 44 46 48 49
96 99 67 86 95 96 91 68 57 47 42 46 49 53 50 43 45 43 42 51 41 45 64 59 76 90 54 32 31 53 73 75 98 86 81 87 94 74 56 43 33 43 46 48 47
100 95 73 91 99 96 79 68 60 58 53 47 51 45 46 49 48 45 46 52 44 52 59 52 73 91 61 47 37 51 50 63 75 88 97 98 84 75 59 63 58 40 47 48 51
100 99 88 96 91 92 97 86 73 54 56 50 52 50 48 50 48 48 42 49 51 49 63 57 73 84 90 88 80 85 66 62 84 99 89 91 73 81 84 81 58 52 49 49 52
100 96 89 97 96 97 85 82 79 79 67 62 58 51 48 55 55 56 54 55 52 65 69 71 77 87 76 69 59 58 84 78 73 80 86 71 68 71 88 80 70 58 50 50 52
100 99 94 97 76 74 83 88 81 83 61 66 81 81 78 68 50 61 68 63 80 66 73 82 84 89 86 60 50 61 71 75 93 85 61 62 70 70 89 86 68 57 50 55 58
98 92 94 82 85 81 80 66 76 55 75 60 76 89 87 76 82 76 73 68 67 70 79 81 87 90 87 68 63 82 63 58 61 74 79 94 67 79 83 84 71 55 56 59 60
Wind_Speed
10 13 15 16 16 16 18 17 19 20 19 20 20 20 22 21 23 5 6 12 9 15 4 5 5 5 4 4 4 3 1 5 6 8 15 12 10 13 5 7 3 3 9 7 16
11 12 14 16 17 17 18 20 19 21 21 19 20 20 20 20 8 8 12 11 18 5 3 6 7 6 3 5 3 6 7 10 8 9 14 13 6 13 9 3 2 4 6 17 15
12 12 14 15 17 20 19 19 20 21 21 19 19 20 18 14 6 7 5 14 11 7 3 3 4 4 7 5 6 7 14 8 8 15 8 14 17 9 10 6 7 10 13 15 11
10 11 13 16 19 19 20 20 21 21 21 20 19 18 17 2 5 3 6 6 8 5 3 4 4 5 6 9 9 7 11 10 14 16 12 17 17 10 7 10 5 16 19 13 11
11 12 13 16 18 21 20 21 22 22 21 21 18 14 5 3 13 9 16 12 2 5 7 6 6 4 5 6 6 12 15 15 15 17 18 17 19 19 13 11 7 11 14 15 13
12 13 15 16 19 21 23 22 22 22 20 20 16 10 2 5 5 8 6 9 7 5 6 5 2 3 6 7 9 7 12 17 16 20 11 10 16 6 12 7 9 16 15 14 13
12 12 14 17 20 23 24 24 25 25 22 19 13 5 5 19 6 6 9 5 4 5 4 2 1 3 3 6 2 4 9 13 15 8 10 7 16 10 15 9 11 13 13 13 14
11 13 15 17 21 23 25 26 29 30 23 16 9 4 10 8 5 12 4 8 8 8 5 5 1 3 4 4 6 4 3 6 7 6 10 9 17 19 11 9 12 11 10 13 15
11 13 15 18 21 23 26 29 32 26 10 7 6 3 11 9 4 10 7 5 5 3 4 4 3 2 5 1 3 3 6 6 9 8 8 6 14 10 10 8 13 8 12 12 11
11 14 16 18 21 23 27 31 23 11 7 8 5 2 7 3 4 9 3 6 3 2 4 2 3 1 3 4 8 5 4 5 10 2 7 12 17 16 18 10 14 10 14 15 15
11 14 16 18 22 23 19 8 7 5 2 9 6 7 8 4 3 5 6 1 3 3 3 1 3 12 10 7 6 7 9 9 13 8 9 15 19 11 16 9 10 9 11 16 19
11 14 16 19 22 24 5 5 13 9 15 15 20 24 21 12 11 15 4 5 4 4 2 1 9 9 9 9 10 9 9 14 17 10 6 16 11 14 14 13 14 13 9 15 10
12 13 15 19 24 6 3 4 10 8 5 13 8 8 9 15 11 12 7 6 4 5 5 5 3 6 12 12 11 8 10 12 14 15 12 11 10 15 11 6 6 9 10 13 20
12 10 11 18 5 7 3 14 14 3 5 10 6 7 5 7 6 11 10 7 5 9 7 5 3 7 8 10 7 9 12 16 19 11 5 3 8 19 12 9 5 7 9 11 17
12 11 9 9 6 5 7 14 15 3 6 3 4 7 8 7 5 3 5 4 6 5 6 4 2 5 9 14 10 11 7 5 5 5 3 6 7 13 6 8 11 8 10 14 22
12 10 9 6 2 6 9 15 2 2 9 4 6 7 5 5 2 4 3 2 4 5 4 7 3 4 8 11 7 11 7 5 5 4 4 9 6 8 6 11 5 8 5 13 18
11 11 8 3 4 6 9 5 3 5 8 2 5 7 10 7 5 7 7 7 6 3 5 3 14 6 4 4 8 8 2 1 3 3 6 5 8 14 13 11 11 11 14 14 21
11 11 5 7 4 3 5 1 7 5 9 12 11 9 7 5 6 10 8 5 5 3 2 4 7 11 10 9 9 11 7 5 6 1 3 12 7 7 10 13 12 12 9 12 18
9 3 4 5 5 4 2 3 7 5 5 12 16 4 3 4 7 6 10 6 7 11 8 2 4 2 11 7 10 6 7 3 4 2 1 5 6 7 11 12 8 9 5 14 16
1 2 7 9 7 3 4 8 6 5 8 8 5 8 9 9 8 6 8 1 5 2 5 4 4 6 6 6 5 7 4 4 4 3 4 4 2 2 16 14 10 8 7 4 11
2 3 6 2 5 3 8 7 8 10 9 6 4 8 8 5 8 8 2 2 4 5 6 3 3 6 4 8 12 4 4 3 1 2 1 1 2 12 13 15 15 17 17 15 13
0 2 4 5 5 3 9 5 8 13 9 7 8 8 8 5 4 5 3 3 3 5 3 1 1 4 7 9 4 9 9 7 3 5 4 2 4 9 9 13 13 16 14 16 19
2 4 5 9 2 7 5 11 13 14 14 5 6 2 9 6 5 4 4 2 1 3 4 2 2 4 7 3 3 4 10 13 5 2 5 2 3 1 12 15 16 10 11 15 17
2 3 5 2 2 5 4 8 12 7 13 11 13 13 11 5 4 5 6 1 0 3 6 4 1 2 3 4 3 7 6 8 9 3 2 5 3 8 5 15 12 5 8 14 16
3 5 4 2 2 5 8 5 12 12 4 9 6 12 11 5 6 6 2 5 6 4 4 3 1 2 7 12 12 13 8 12 17 13 7 4 11 5 6 5 10 11 10 14 13
3 2 3 3 7 7 7 3 8 9 9 13 6 15 7 5 4 8 4 1 2 5 3 4 1 3 4 5 8 7 13 12 13 16 14 13 10 3 9 2 5 8 12 13 14
2 1 3 4 3 6 5 5 12 11 9 8 13 13 8 6 2 4 4 5 3 3 2 2 1 2 4 7 9 6 3 10 8 7 10 5 3 9 5 6 5 2 11 15 15
Wind_Direction
350 346 342 337 334 335 334 336 331 332 334 331 329 326 326 328 318 296 259 221 196 242 237 255 220 204 130 230 216 139 150 217 221 227 244 311 338 317 283 140 220 177 156 177 136
350 346 343 339 338 336 335 332 331 329 328 326 321 320 324 331 308 263 245 229 223 226 210 219 231 178 187 211 230 167 216 215 205 234 268 291 287 291 316 193 228 53 58 128 140
346 350 348 344 339 334 331 327 325 323 319 317 315 319 324 329 324 247 239 212 232 191 238 254 232 199 194 199 209 222 237 231 254 252 262 271 284 289 270 244 224 180 155 149 153
346 348 345 342 335 331 325 321 319 318 313 311 315 321 322 316 292 263 164 163 229 180 228 226 183 191 199 206 219 254 254 232 257 262 267 262 274 279 262 253 274 170 160 153 166
336 341 344 341 336 328 321 314 311 310 310 308 313 326 341 3 249 290 312 337 236 175 221 222 206 171 206 203 216 243 249 259 257 256 256 265 264 256 264 251 158 141 156 166 176
339 343 342 338 333 326 319 312 307 303 301 301 309 315 216 287 246 265 336 330 254 205 253 222 262 245 267 242 219 251 235 246 253 255 253 255 270 169 251 226 155 159 180 176 176
340 341 338 335 331 325 319 313 306 297 296 291 289 265 257 248 271 297 307 248 258 248 237 231 19 73 303 309 321 244 260 273 257 258 250 252 277 255 251 228 197 185 178 173 179
344 340 337 331 323 319 317 312 306 296 297 276 244 197 249 256 256 279 231 286 242 250 228 215 80 243 204 272 325 264 211 245 262 238 263 174 264 271 245 214 238 194 184 169 181
336 338 333 327 322 322 317 313 304 304 277 162 141 182 263 306 218 266 214 244 268 316 313 290 80 231 312 193 324 248 248 265 287 243 256 196 272 276 256 224 234 214 188 185 177
330 334 332 327 323 323 319 311 289 296 105 156 147 280 252 247 12 306 232 203 229 328 335 93 81 187 315 145 222 222 258 253 250 295 339 309 292 271 261 227 232 215 193 186 185
333 332 331 326 322 321 328 339 9 337 55 242 212 239 287 301 342 303 301 85 75 58 171 287 140 219 217 232 216 262 267 277 286 291 322 284 280 268 277 229 237 213 185 187 192
330 330 328 326 319 321 332 28 4 299 297 265 248 255 256 281 292 283 276 175 153 174 143 335 245 239 234 256 253 244 261 274 286 291 261 288 280 286 282 253 212 197 191 190 157
326 327 327 324 316 339 288 349 321 326 289 296 240 221 231 181 221 269 185 183 162 168 191 201 242 266 230 244 254 256 253 261 267 295 288 295 296 293 281 250 203 214 205 186 172
322 326 333 333 4 331 305 338 329 328 290 273 218 227 175 152 228 218 173 160 218 197 180 234 264 231 257 236 214 265 250 260 262 263 271 37 290 284 278 287 298 228 213 176 182
320 316 333 342 287 316 318 329 316 42 328 199 168 154 155 170 149 219 151 116 207 182 137 244 218 173 227 244 244 255 319 314 341 320 291 276 259 273 249 284 273 265 223 195 182
315 309 332 319 330 253 322 315 350 68 251 271 143 181 147 220 224 115 149 166 182 176 232 236 201 208 221 259 267 301 324 262 216 176 242 243 222 272 236 241 268 260 233 196 183
306 308 314 258 250 314 337 342 73 216 315 210 206 178 203 204 192 169 174 180 180 150 254 278 236 193 172 220 246 241 312 258 258 210 225 226 225 239 266 255 244 265 279 201 181
301 305 270 248 260 17 349 14 216 250 270 344 345 286 201 206 205 173 142 195 245 139 358 194 308 190 172 203 190 217 194 164 201 269 303 208 236 249 239 254 245 252 273 175 167
320 308 262 243 207 121 229 209 218 210 352 344 323 273 282 293 208 160 190 196 196 173 186 253 266 95 168 180 179 200 198 270 6 223 260 267 299 312 337 267 262 266 116 161 163
27 332 255 246 139 138 215 242 240 259 9 353 308 336 354 334 337 182 179 341 131 104 204 279 290 248 201 168 211 184 120 147 177 210 206 249 285 322 349 355 41 33 70 85 164
44 354 270 192 128 186 221 234 286 273 298 318 312 291 316 350 338 328 65 114 107 358 4 24 181 287 3 194 194 237 157 159 265 219 247 289 133 360 8 15 56 68 66 63 70
135 280 258 22 175 218 224 220 256 282 292 278 281 266 278 330 309 308 27 117 156 133 162 224 248 263 241 251 179 159 183 173 183 178 206 275 273 320 338 26 33 55 57 60 67
256 256 297 108 252 230 259 253 248 271 272 261 277 343 314 312 304 297 3 330 166 93 145 284 323 320 319 306 121 159 203 204 179 58 220 176 179 26 352 3 7 43 61 68 70
238 293 307 71 204 278 303 265 255 277 262 247 262 285 290 315 324 288 295 221 348 139 164 101 196 269 273 341 284 293 153 220 191 188 198 226 195 128 67 358 349 73 58 80 83
195 234 211 305 341 322 270 255 291 297 295 326 293 239 259 263 311 301 223 356 27 71 65 86 187 24 291 280 279 292 222 259 232 223 208 238 231 161 134 118 302 318 91 84 80
190 171 345 303 281 273 248 268 298 326 283 292 297 318 327 286 248 289 324 88 83 1 69 358 277 17 284 351 326 286 238 217 246 237 229 244 247 71 99 195 266 317 97 79 60
201 288 104 251 328 331 301 340 329 324 284 307 273 272 291 290 321 256 240 274 163 128 104 123 278 40 278 330 302 285 207 244 197 230 229 254 223 120 119 166 282 75 90 89 77